This is the latest recevied weather packets stored in our database for station/object K0SNA. If no packets are shown the sender has not sent any weather packets the latest 10 day(s).
| Time | Temp. | Humidity | Pressure | Rain* | Wind** | Luminosity | Snow |
|---|---|---|---|---|---|---|---|
| 1777769973 | 17.78° C | 36% | 1011 hPa | 0 mm | - | 4 W/m² | - |
| 1777769670 | 17.78° C | 36% | 1010.9 hPa | 0 mm | - | 4 W/m² | - |
| 1777769367 | 17.22° C | 38% | 1011 hPa | 0 mm | - | 5 W/m² | - |
| 1777769064 | 17.22° C | 38% | 1010.9 hPa | 0 mm | - | 7 W/m² | - |
| 1777768761 | 17.22° C | 38% | 1011 hPa | 0 mm | - | 14 W/m² | - |
| 1777768458 | 17.22° C | 38% | 1011.2 hPa | 0 mm | - | 13 W/m² | - |
| 1777768155 | 17.22° C | 39% | 1011.3 hPa | 0 mm | - | 10 W/m² | - |
| 1777767852 | 17.22° C | 40% | 1011.4 hPa | 0 mm | - | 8 W/m² | - |
| 1777767548 | 17.78° C | 38% | 1011.3 hPa | 0 mm | - | 15 W/m² | - |
| 1777767245 | 17.78° C | 37% | 1011.1 hPa | 0 mm | - | 27 W/m² | - |
| 1777766943 | 17.78° C | 37% | 1011.2 hPa | 0 mm | - | 21 W/m² | - |
| 1777766640 | 17.78° C | 37% | 1011.3 hPa | 0 mm | - | 24 W/m² | - |
| 1777766337 | 17.78° C | 37% | 1011.4 hPa | 0 mm | - | 26 W/m² | - |
| 1777766033 | 17.78° C | 37% | 1011.5 hPa | 0 mm | - | 27 W/m² | - |
| 1777765731 | 18.33° C | 36% | 1011.6 hPa | 0 mm | - | 24 W/m² | - |
| 1777765427 | 18.33° C | 35% | 1011.4 hPa | 0 mm | - | 20 W/m² | - |
| 1777765124 | 18.33° C | 35% | 1011.3 hPa | 0 mm | - | 23 W/m² | - |
| 1777764820 | 18.33° C | 34% | 1011.2 hPa | 0 mm | - | 26 W/m² | - |
| 1777764517 | 18.33° C | 34% | 1011.3 hPa | 0 mm | - | 37 W/m² | - |
| 1777764214 | 18.89° C | 33% | 1011.4 hPa | 0 mm | - | 48 W/m² | - |
| 1777763910 | 18.89° C | 32% | 1011.3 hPa | 0 mm | - | 48 W/m² | - |
| 1777763608 | 18.89° C | 32% | 1011.4 hPa | 0 mm | - | 52 W/m² | - |
| 1777763306 | 18.89° C | 32% | 1011.4 hPa | 0 mm | - | 61 W/m² | - |
| 1777763004 | 18.89° C | 32% | 1011.3 hPa | 0 mm | - | 64 W/m² | - |
| 1777762700 | 18.89° C | 32% | 1011.4 hPa | 0 mm | - | 72 W/m² | - |
* Rain latest hour (hover to see other rain measurements)
** Current wind speed in m/s (hover to see current wind gust speed)